Location: Chavenne
(46.6022°N, 3.2951°E)
Time: 03:28:32
(UTC+00:00)

Cosmos 1697 Rocket - Pass Details

Date: 09 April 2020
Orbit: 831 x 845 km, 71.0° (Epoch: 02 June)

Event Time Altitude Azimuth Distance (km) Brightness Sun altitude
Rises 21:05:33 0° 334° (NNW) 3,412 7.0 -24.5°
Reaches altitude 10° 21:08:02 10° 337° (NNW) 2,474 6.0 -24.8°
Maximum altitude 21:13:42 69° 61° (ENE) 902 2.7 -25.5°
Enters shadow 21:14:12 66° 95° (E) 924 2.6 -25.6°
